SCP
0 0 0 0 0 0 0 0 0 0 0 0 0 0 0 0 0 0 0 0 0 0 0 0 0 0 0
0 0 0 0 0 0 0 0 0 0 0 0 0 0 0 0 0 0 0 0 0 0 0 0 0 0 0
0 0 0 0 0 0 0 0 0 0 0 0 0 0 0 0 0 0 0 0 0 0 0 0 0 0 0
0 0 0 0 0 0 0 0 0 0 0 0 0 0 0 0 0 0 0 0 0 0 0 0 0 0 0
0 0 0 0 0 0 0 0 0 0 0 0 0 0 0 0 0 0 0 0 0 0 0 0 0 0 0
0 0 0 0 0 0 0 0 0 0 0 0 0 0 0 0 0 0 0 0 0 0 0 0 0 0 0
0 0 0 0 0 0 0 0 0 0 0 0 0 0 0 0 0 0 0 0 0 0 0 0 0 0 0
0 0 0 0 0 0 0 0 0 0 0 0 0 0 0 0 0 0 0 0 0 0 0 0 0 0 0
0 0 0 0 0 0 0 0 0 0 0 0 0 0 0 0 0 0 0 0 0 0 0 0 0 0 0
0 0 0 0 0 0 0 0 0 0 0 0 0 0 0 0 0 0 0 0 0 0 0 0 0 0 0
0 0 0 0 0 0 0 0 0 0 0 0 0 0 0 0 0 0 0 0 0 0 0 0 0 0 0
0 0 0 0 0 0 0 0 0 0 0 0 0 0 0 0 0 0 0 0 0 0 0 0 0 0 0
0 0 0 0 0 0 0 0 0 0 0 0 0 0 0 0 0 0 0 0 0 0 0 0 0 0 0
0 0 0 0 0 0 0 0 0 0 0 0 0 0 0 0 0 0 0 0 0 0 0 0 0 0 0
0 0 0 0 0 0 0 0 0 0 0 0 0 0 0 0 0 0 0 0 0 0 0 0 0 0 0
0 0 0 0 0 0 0 0 0 0 0 0 0 0 0 0 0 0 0 0 0 0 0 0 0 0 0
Wind_Speed_500mb
11 11 10 8 7 5 5 8 10 11 10 9 10 13 14 15 14 13 11 12 14 15 16 18 19 20 20
11 14 14 13 12 11 9 9 11 13 13 14 13 13 17 18 17 16 17 17 16 15 17 19 21 21 23
9 12 16 16 15 15 15 14 14 15 17 18 17 16 14 15 16 18 20 22 22 21 22 22 24 24 22
11 15 13 21 20 17 18 19 19 20 20 21 22 21 20 18 19 20 22 24 25 24 23 23 23 22 22
14 15 16 17 19 19 18 19 19 20 19 21 21 21 21 21 21 22 23 23 23 24 23 24 25 26 26
20 20 18 20 20 20 20 21 22 23 22 20 22 24 23 23 25 25 24 24 25 24 25 25 26 29 31
27 25 22 22 26 23 25 24 23 22 24 26 28 29 29 29 28 28 29 28 27 26 28 30 30 32 33
27 29 28 25 24 27 28 26 26 24 28 29 30 32 33 33 33 33 33 33 34 33 33 33 34 36 38
29 33 36 35 33 32 31 30 30 30 27 27 32 33 35 36 37 39 38 38 38 38 38 36 38 40 42
27 32 38 41 39 38 36 36 34 35 33 35 33 32 32 38 40 42 43 43 43 42 42 40 42 44 44
33 33 38 42 43 43 41 39 41 42 38 39 37 37 36 36 38 41 42 43 43 43 44 46 47 50 50
41 42 44 44 46 45 44 43 40 42 36 42 39 38 37 39 41 42 41 43 49 51 49 49 48 49 50
46 39 39 39 40 40 40 39 37 35 36 41 37 43 43 38 42 43 46 47 45 45 44 46 47 48 48
24 22 24 26 28 26 25 25 25 33 35 35 38 37 38 38 39 43 43 43 42 42 40 42 41 41 30
18 16 12 11 14 18 16 22 26 29 32 30 32 36 37 38 41 42 41 39 41 42 42 33 14 12 30
8 9 8 13 17 19 21 25 26 26 29 34 38 39 36 32 29 30 30 28 28 30 30 33 35 40 20
Wind_Direction_500mb
245 248 248 248 253 257 249 241 241 252 269 276 285 296 310 328 341 345 328 302 295 290 296 301 302 301 304
262 259 253 251 252 257 259 260 258 258 265 267 277 289 290 301 313 320 324 323 320 309 305 302 300 303 299
291 286 260 247 248 252 257 260 263 267 269 269 273 277 287 288 293 303 309 310 308 308 311 310 307 307 301
313 312 298 257 250 249 256 260 263 264 266 267 263 266 271 279 288 295 297 303 298 301 301 304 309 311 306
296 309 305 303 309 265 264 259 262 263 262 261 265 264 270 278 288 291 290 295 299 298 302 297 299 303 305
272 284 300 294 299 316 311 275 268 269 269 280 277 276 278 288 293 292 290 290 292 293 294 297 298 300 303
263 267 278 293 287 293 298 302 282 271 271 275 276 278 279 284 290 287 289 290 292 300 300 302 307 311 312
258 256 264 276 281 279 287 294 295 288 278 279 279 280 282 284 287 286 286 289 292 297 298 301 303 305 307
264 252 249 257 263 267 276 280 274 276 285 296 289 280 281 280 278 280 285 288 290 294 296 299 307 309 307
267 256 254 256 259 261 260 262 269 270 280 284 289 290 285 277 280 282 284 285 288 293 292 292 293 296 300
265 257 254 257 260 261 258 251 248 260 267 269 271 277 276 274 276 279 279 283 284 286 288 289 290 294 297
265 262 259 255 254 257 259 258 257 252 260 269 269 274 275 279 278 282 288 287 285 284 285 287 289 289 289
275 267 255 251 250 251 254 257 257 255 265 268 273 274 277 275 281 279 285 285 286 287 291 289 287 291 289
279 268 252 244 247 248 249 252 253 262 270 272 274 279 281 282 281 283 283 282 284 283 283 287 294 297 289
294 277 256 230 234 222 253 267 262 267 267 269 277 280 280 277 275 274 274 273 272 271 272 272 280 259 294
306 262 215 231 236 252 262 261 262 268 276 279 276 276 275 276 280 277 277 278 277 275 270 266 262 264 273
Wind_Speed_850mb
11 11 10 8 7 5 5 8 10 11 10 9 10 13 14 15 14 13 11 12 14 15 16 18 19 20 20
11 14 14 13 12 11 9 9 11 13 13 14 13 13 17 18 17 16 17 17 16 15 17 19 21 21 23
9 12 16 16 15 15 15 14 14 15 17 18 17 16 14 15 16 18 20 22 22 21 22 22 24 24 22
11 15 13 21 20 17 18 19 19 20 20 21 22 21 20 18 19 20 22 24 25 24 23 23 23 22 22
14 15 16 17 19 19 18 19 19 20 19 21 21 21 21 21 21 22 23 23 23 24 23 24 25 26 26
20 20 18 20 20 20 20 21 22 23 22 20 22 24 23 23 25 25 24 24 25 24 25 25 26 29 31
27 25 22 22 26 23 25 24 23 22 24 26 28 29 29 29 28 28 29 28 27 26 28 30 30 32 33
27 29 28 25 24 27 28 26 26 24 28 29 30 32 33 33 33 33 33 33 34 33 33 33 34 36 38
29 33 36 35 33 32 31 30 30 30 27 27 32 33 35 36 37 39 38 38 38 38 38 36 38 40 42
27 32 38 41 39 38 36 36 34 35 33 35 33 32 32 38 40 42 43 43 43 42 42 40 42 44 44
33 33 38 42 43 43 41 39 41 42 38 39 37 37 36 36 38 41 42 43 43 43 44 46 47 50 50
41 42 44 44 46 45 44 43 40 42 36 42 39 38 37 39 41 42 41 43 49 51 49 49 48 49 50
46 39 39 39 40 40 40 39 37 35 36 41 37 43 43 38 42 43 46 47 45 45 44 46 47 48 48
24 22 24 26 28 26 25 25 25 33 35 35 38 37 38 38 39 43 43 43 42 42 40 42 41 41 30
18 16 12 11 14 18 16 22 26 29 32 30 32 36 37 38 41 42 41 39 41 42 42 33 14 12 30
8 9 8 13 17 19 21 25 26 26 29 34 38 39 36 32 29 30 30 28 28 30 30 33 35 40 20
Wind_Direction_850mb
245 248 248 248 253 257 249 241 241 252 269 276 285 296 310 328 341 345 328 302 295 290 296 301 302 301 304
262 259 253 251 252 257 259 260 258 258 265 267 277 289 290 301 313 320 324 323 320 309 305 302 300 303 299
291 286 260 247 248 252 257 260 263 267 269 269 273 277 287 288 293 303 309 310 308 308 311 310 307 307 301
313 312 298 257 250 249 256 260 263 264 266 267 263 266 271 279 288 295 297 303 298 301 301 304 309 311 306
296 309 305 303 309 265 264 259 262 263 262 261 265 264 270 278 288 291 290 295 299 298 302 297 299 303 305
272 284 300 294 299 316 311 275 268 269 269 280 277 276 278 288 293 292 290 290 292 293 294 297 298 300 303
263 267 278 293 287 293 298 302 282 271 271 275 276 278 279 284 290 287 289 290 292 300 300 302 307 311 312
258 256 264 276 281 279 287 294 295 288 278 279 279 280 282 284 287 286 286 289 292 297 298 301 303 305 307
264 252 249 257 263 267 276 280 274 276 285 296 289 280 281 280 278 280 285 288 290 294 296 299 307 309 307
267 256 254 256 259 261 260 262 269 270 280 284 289 290 285 277 280 282 284 285 288 293 292 292 293 296 300
265 257 254 257 260 261 258 251 248 260 267 269 271 277 276 274 276 279 279 283 284 286 288 289 290 294 297
265 262 259 255 254 257 259 258 257 252 260 269 269 274 275 279 278 282 288 287 285 284 285 287 289 289 289
275 267 255 251 250 251 254 257 257 255 265 268 273 274 277 275 281 279 285 285 286 287 291 289 287 291 289
279 268 252 244 247 248 249 252 253 262 270 272 274 279 281 282 281 283 283 282 284 283 283 287 294 297 289
294 277 256 230 234 222 253 267 262 267 267 269 277 280 280 277 275 274 274 273 272 271 272 272 280 259 294
306 262 215 231 236 252 262 261 262 268 276 279 276 276 275 276 280 277 277 278 277 275 270 266 262 264 273